| time (UTC) | temp F | wind direction | speed knots | gust knots | rain 1hr in | rain 24hr in | rain mn in | humidity % | barometer mb |
| 20260507040554 | 52 | 290 | 1.7 | 4.3 | 0.01 | 0.28 | 0.00 | 70 | 1006.8 |
| 20260507040052 | 53 | 290 | 1.7 | 2.6 | 0.01 | 0.28 | 0.00 | 70 | 1006.9 |
| 20260507035550 | 53 | 228 | 0.0 | 3.5 | 0.01 | 0.28 | 0.28 | 70 | 1007.1 |
| 20260507035049 | 53 | 295 | 0.9 | 5.2 | 0.01 | 0.28 | 0.28 | 71 | 1007.0 |
| 20260507034547 | 53 | 317 | 1.7 | 5.2 | 0.01 | 0.28 | 0.28 | 71 | 1006.9 |
| 20260507034045 | 54 | 313 | 0.9 | 4.3 | 0.01 | 0.28 | 0.28 | 72 | 1006.8 |
| 20260507033544 | 54 | 287 | 0.0 | 2.6 | 0.01 | 0.28 | 0.28 | 72 | 1006.8 |
| 20260507033043 | 55 | 282 | 0.0 | 2.6 | 0.01 | 0.28 | 0.28 | 71 | 1006.7 |
| 20260507032544 | 55 | 274 | 0.0 | 2.6 | 0.00 | 0.28 | 0.28 | 71 | 1006.9 |
| 20260507032042 | 55 | 280 | 0.0 | 2.6 | 0.00 | 0.28 | 0.28 | 71 | 1006.6 |
| 20260507031540 | 55 | 277 | 0.0 | 1.7 | 0.00 | 0.28 | 0.28 | 71 | 1006.5 |
| 20260507031039 | 55 | 280 | 0.0 | 2.6 | 0.00 | 0.28 | 0.28 | 71 | 1006.5 |
| 20260507030538 | 55 | 268 | 0.9 | 3.5 | 0.00 | 0.28 | 0.28 | 71 | 1006.3 |
| 20260507030038 | 56 | 290 | 0.9 | 5.2 | 0.00 | 0.28 | 0.28 | 71 | 1006.1 |
| 20260507025537 | 56 | 290 | 0.9 | 6.1 | 0.00 | 0.28 | 0.28 | 72 | 1006.2 |
| 20260507025035 | 56 | 291 | 1.7 | 4.3 | 0.00 | 0.28 | 0.28 | 73 | 1006.0 |
| 20260507024533 | 56 | 281 | 0.9 | 4.3 | 0.00 | 0.28 | 0.28 | 73 | 1006.0 |
| 20260507024030 | 57 | 218 | 0.0 | 3.5 | 0.00 | 0.28 | 0.28 | 73 | 1006.0 |
| 20260507023529 | 57 | 231 | 0.9 | 4.3 | 0.00 | 0.28 | 0.28 | 73 | 1006.1 |
| 20260507023028 | 57 | 233 | 0.9 | 4.3 | 0.00 | 0.28 | 0.28 | 73 | 1006.1 |
| 20260507022526 | 58 | 233 | 0.9 | 6.1 | 0.00 | 0.28 | 0.28 | 73 | 1006.1 |
| 20260507022025 | 58 | 248 | 2.6 | 7.0 | 0.00 | 0.28 | 0.28 | 74 | 1006.1 |
| 20260507021523 | 58 | 231 | 1.7 | 7.0 | 0.00 | 0.28 | 0.28 | 75 | 1006.0 |
| 20260507021024 | 59 | 252 | 0.9 | 7.0 | 0.00 | 0.28 | 0.28 | 76 | 1006.1 |
| 20260507020523 | 59 | 257 | 2.6 | 9.6 | 0.00 | 0.28 | 0.28 | 77 | 1005.9 |
| 20260507020022 | 59 | 248 | 1.7 | 9.6 | 0.00 | 0.28 | 0.28 | 77 | 1005.8 |
| 20260507015523 | 59 | 259 | 5.2 | 8.7 | 0.00 | 0.28 | 0.28 | 77 | 1005.7 |
| 20260507015022 | 59 | 228 | 2.6 | 6.1 | 0.00 | 0.28 | 0.28 | 77 | 1005.5 |
| 20260507014520 | 59 | 243 | 3.5 | 7.0 | 0.00 | 0.28 | 0.28 | 77 | 1005.6 |
| 20260507014020 | 59 | 233 | 3.5 | 7.0 | 0.00 | 0.28 | 0.28 | 77 | 1005.6 |
| 20260507013519 | 59 | 205 | 3.5 | 7.0 | 0.00 | 0.28 | 0.28 | 77 | 1005.7 |
| 20260507013018 | 59 | 217 | 3.5 | 6.1 | 0.00 | 0.28 | 0.28 | 77 | 1005.5 |
| 20260507012518 | 59 | 223 | 2.6 | 5.2 | 0.00 | 0.28 | 0.28 | 77 | 1005.5 |
| 20260507012018 | 59 | 211 | 2.6 | 7.0 | 0.00 | 0.28 | 0.28 | 77 | 1005.5 |
| 20260507011517 | 59 | 218 | 4.3 | 7.0 | 0.00 | 0.28 | 0.28 | 78 | 1005.4 |
| 20260507011015 | 59 | 181 | 3.5 | 7.0 | 0.00 | 0.28 | 0.28 | 78 | 1005.5 |
| 20260507010514 | 59 | 232 | 2.6 | 7.0 | 0.00 | 0.28 | 0.28 | 78 | 1005.6 |
| 20260507010018 | 59 | 236 | 3.5 | 9.6 | 0.00 | 0.28 | 0.28 | 78 | 1005.5 |
| 20260507005513 | 59 | 240 | 4.3 | 9.6 | 0.00 | 0.28 | 0.28 | 78 | 1005.5 |
| 20260507005013 | 59 | 146 | 3.5 | 9.6 | 0.00 | 0.28 | 0.28 | 78 | 1005.5 |
| 20260507004513 | 59 | 238 | 3.5 | 9.6 | 0.00 | 0.28 | 0.28 | 79 | 1005.4 |
| 20260507004011 | 59 | 224 | 4.3 | 9.6 | 0.00 | 0.28 | 0.28 | 79 | 1005.4 |
| 20260507003510 | 59 | 217 | 4.3 | 8.7 | 0.01 | 0.28 | 0.28 | 80 | 1005.3 |
| 20260507003009 | 59 | 212 | 3.5 | 7.0 | 0.01 | 0.28 | 0.28 | 80 | 1005.2 |
| 20260507002508 | 59 | 237 | 3.5 | 7.0 | 0.01 | 0.28 | 0.28 | 80 | 1005.2 |
| 20260507002007 | 59 | 251 | 3.5 | 7.0 | 0.01 | 0.28 | 0.28 | 80 | 1005.2 |
| 20260507001511 | 58 | 219 | 3.5 | 5.2 | 0.02 | 0.28 | 0.28 | 80 | 1005.3 |
| 20260507001006 | 58 | 198 | 1.7 | 5.2 | 0.02 | 0.28 | 0.28 | 80 | 1005.1 |
| 20260507000606 | 58 | 227 | 1.7 | 5.2 | 0.02 | 0.28 | 0.28 | 80 | 1005.1 |
| 20260507000004 | 58 | 150 | 2.6 | 4.3 | 0.03 | 0.28 | 0.28 | 80 | 1005.1 |
| 20260506235503 | 58 | 127 | 1.7 | 4.3 | 0.03 | 0.28 | 0.28 | 80 | 1005.0 |
| 20260506235004 | 58 | 213 | 1.7 | 7.0 | 0.04 | 0.28 | 0.28 | 80 | 1005.2 |
| 20260506234502 | 58 | 226 | 2.6 | 7.0 | 0.04 | 0.28 | 0.28 | 80 | 1005.2 |
| 20260506234002 | 58 | 207 | 2.6 | 7.0 | 0.05 | 0.28 | 0.28 | 80 | 1005.0 |
| 20260506233500 | 58 | 196 | 2.6 | 6.1 | 0.04 | 0.27 | 0.27 | 80 | 1004.9 |
| 20260506233000 | 58 | 227 | 2.6 | 6.1 | 0.05 | 0.27 | 0.27 | 80 | 1005.0 |
| 20260506232600 | 58 | 200 | 1.7 | 6.1 | 0.05 | 0.27 | 0.27 | 80 | 1004.9 |
| 20260506232059 | 58 | 165 | 1.7 | 6.1 | 0.06 | 0.27 | 0.27 | 80 | 1004.8 |
| 20260506231610 | 58 | 215 | 2.6 | 6.1 | 0.05 | 0.26 | 0.26 | 80 | 1005.0 |
| 20260506231059 | 58 | 185 | 1.7 | 4.3 | 0.06 | 0.26 | 0.26 | 80 | 1004.9 |
| 20260506230557 | 58 | 156 | 1.7 | 6.1 | 0.06 | 0.26 | 0.26 | 80 | 1004.9 |
| 20260506230111 | 58 | 217 | 2.6 | 6.1 | 0.05 | 0.25 | 0.25 | 80 | 1004.9 |
| 20260506225555 | 58 | 229 | 2.6 | 5.2 | 0.06 | 0.25 | 0.25 | 80 | 1005.0 |
| 20260506225054 | 58 | 224 | 1.7 | 6.1 | 0.05 | 0.24 | 0.24 | 80 | 1005.0 |
| 20260506224553 | 58 | 214 | 2.6 | 6.1 | 0.05 | 0.24 | 0.24 | 80 | 1005.1 |
| 20260506224053 | 58 | 202 | 2.6 | 5.2 | 0.05 | 0.23 | 0.23 | 79 | 1005.1 |
| 20260506223551 | 58 | 223 | 2.6 | 7.0 | 0.05 | 0.23 | 0.23 | 79 | 1005.1 |
| 20260506223050 | 58 | 226 | 2.6 | 7.0 | 0.04 | 0.22 | 0.22 | 79 | 1005.0 |
| 20260506222551 | 58 | 193 | 2.6 | 7.0 | 0.04 | 0.22 | 0.22 | 79 | 1005.0 |
| 20260506222048 | 58 | 243 | 2.6 | 7.8 | 0.04 | 0.21 | 0.21 | 78 | 1005.1 |
| 20260506221607 | 58 | 212 | 2.6 | 7.8 | 0.04 | 0.21 | 0.21 | 78 | 1005.0 |
| 20260506221047 | 58 | 205 | 3.5 | 7.0 | 0.04 | 0.20 | 0.20 | 78 | 1005.1 |
| 20260506220549 | 58 | 200 | 2.6 | 7.0 | 0.04 | 0.20 | 0.20 | 78 | 1005.1 |
| 20260506220101 | 58 | 182 | 2.6 | 7.0 | 0.04 | 0.20 | 0.20 | 78 | 1005.2 |
| 20260506215544 | 58 | 170 | 3.5 | 7.8 | 0.04 | 0.19 | 0.19 | 77 | 1005.4 |
| 20260506215043 | 58 | 215 | 2.6 | 7.8 | 0.04 | 0.19 | 0.19 | 77 | 1005.2 |
| 20260506214547 | 58 | 227 | 1.7 | 7.0 | 0.05 | 0.19 | 0.19 | 77 | 1005.2 |
| 20260506214041 | 58 | 193 | 1.7 | 7.8 | 0.04 | 0.18 | 0.18 | 76 | 1005.3 |
| 20260506213540 | 59 | 222 | 4.3 | 9.6 | 0.05 | 0.18 | 0.18 | 76 | 1005.3 |
| 20260506213044 | 59 | 233 | 3.5 | 9.6 | 0.05 | 0.18 | 0.18 | 76 | 1005.4 |
| 20260506212537 | 59 | 152 | 2.6 | 10.4 | 0.06 | 0.18 | 0.18 | 76 | 1005.4 |
| 20260506212036 | 59 | 221 | 3.5 | 10.4 | 0.05 | 0.17 | 0.17 | 76 | 1005.5 |
| 20260506211536 | 59 | 207 | 4.3 | 7.8 | 0.06 | 0.17 | 0.17 | 76 | 1005.4 |
| 20260506211033 | 59 | 215 | 4.3 | 7.0 | 0.06 | 0.16 | 0.16 | 76 | 1005.5 |
| 20260506210532 | 59 | 152 | 2.6 | 6.1 | 0.06 | 0.16 | 0.16 | 76 | 1005.4 |
| 20260506210033 | 59 | 220 | 1.7 | 6.1 | 0.07 | 0.16 | 0.16 | 75 | 1005.6 |
| 20260506205530 | 59 | 203 | 1.7 | 5.2 | 0.06 | 0.15 | 0.15 | 74 | 1005.5 |
| 20260506205026 | 59 | 205 | 1.7 | 7.0 | 0.07 | 0.15 | 0.15 | 74 | 1005.6 |
| 20260506204527 | 59 | 154 | 3.5 | 9.6 | 0.06 | 0.14 | 0.14 | 73 | 1005.7 |
| 20260506204022 | 59 | 211 | 2.6 | 10.4 | 0.07 | 0.14 | 0.14 | 73 | 1005.7 |
| 20260506203524 | 59 | 174 | 4.3 | 10.4 | 0.06 | 0.13 | 0.13 | 73 | 1005.7 |
| 20260506203019 | 59 | 174 | 4.3 | 10.4 | 0.06 | 0.13 | 0.13 | 73 | 1005.8 |
| 20260506202516 | 59 | 191 | 4.3 | 10.4 | 0.05 | 0.12 | 0.12 | 73 | 1005.9 |
| 20260506202015 | 59 | 216 | 7.0 | 12.2 | 0.05 | 0.12 | 0.12 | 73 | 1006.0 |
| 20260506201526 | 60 | 166 | 5.2 | 12.2 | 0.04 | 0.11 | 0.11 | 73 | 1006.0 |
| 20260506201011 | 60 | 203 | 4.3 | 10.4 | 0.03 | 0.10 | 0.10 | 73 | 1006.0 |
| 20260506200510 | 60 | 230 | 3.5 | 7.8 | 0.03 | 0.10 | 0.10 | 72 | 1005.9 |
| 20260506200008 | 60 | 221 | 2.6 | 6.1 | 0.03 | 0.09 | 0.09 | 72 | 1006.0 |
| 20260506195508 | 60 | 136 | 2.6 | 7.0 | 0.03 | 0.09 | 0.09 | 72 | 1006.0 |
| 20260506195006 | 60 | 193 | 3.5 | 7.0 | 0.02 | 0.08 | 0.08 | 71 | 1006.1 |
| 20260506194506 | 61 | 202 | 2.6 | 8.7 | 0.01 | 0.07 | 0.07 | 71 | 1006.0 |
| 20260506194003 | 61 | 205 | 3.5 | 7.8 | 0.01 | 0.07 | 0.07 | 71 | 1006.1 |
| 20260506193503 | 61 | 201 | 3.5 | 7.0 | 0.01 | 0.07 | 0.07 | 71 | 1006.2 |
| 20260506193002 | 61 | 216 | 4.3 | 8.7 | 0.02 | 0.07 | 0.07 | 71 | 1006.1 |
| 20260506192504 | 61 | 174 | 2.6 | 8.7 | 0.02 | 0.07 | 0.07 | 71 | 1006.2 |
| 20260506192100 | 61 | 174 | 3.5 | 8.7 | 0.03 | 0.07 | 0.07 | 70 | 1006.2 |
| 20260506191622 | 61 | 218 | 3.5 | 8.7 | 0.03 | 0.07 | 0.07 | 70 | 1006.1 |
| 20260506191058 | 61 | 260 | 5.2 | 9.6 | 0.04 | 0.07 | 0.07 | 70 | 1006.1 |
| 20260506190558 | 61 | 199 | 5.2 | 12.2 | 0.04 | 0.07 | 0.07 | 70 | 1006.3 |
| 20260506190057 | 61 | 255 | 7.0 | 12.2 | 0.04 | 0.06 | 0.06 | 70 | 1006.2 |
| 20260506185556 | 61 | 146 | 5.2 | 9.6 | 0.04 | 0.06 | 0.06 | 70 | 1006.1 |
| 20260506185054 | 61 | 191 | 1.7 | 6.1 | 0.05 | 0.06 | 0.06 | 70 | 1006.0 |
| 20260506184605 | 61 | 198 | 2.6 | 7.0 | 0.05 | 0.06 | 0.06 | 69 | 1006.2 |
| 20260506184053 | 61 | 196 | 3.5 | 11.3 | 0.06 | 0.06 | 0.06 | 69 | 1006.2 |
| 20260506183551 | 61 | 245 | 4.3 | 11.3 | 0.06 | 0.06 | 0.06 | 69 | 1006.4 |
| 20260506183050 | 62 | 207 | 3.5 | 9.6 | 0.05 | 0.05 | 0.05 | 69 | 1006.4 |
| 20260506182548 | 62 | 230 | 4.3 | 9.6 | 0.05 | 0.05 | 0.05 | 69 | 1006.7 |
| 20260506182048 | 62 | 199 | 4.3 | 7.8 | 0.04 | 0.04 | 0.04 | 68 | 1006.7 |
| 20260506181547 | 62 | 240 | 3.5 | 9.6 | 0.04 | 0.04 | 0.04 | 67 | 1006.6 |
| 20260506181046 | 62 | 219 | 4.3 | 11.3 | 0.03 | 0.03 | 0.03 | 66 | 1006.9 |
| 20260506180546 | 63 | 209 | 5.2 | 12.2 | 0.03 | 0.03 | 0.03 | 66 | 1006.9 |
| 20260506180044 | 63 | 201 | 6.1 | 12.2 | 0.02 | 0.02 | 0.02 | 65 | 1006.9 |
| 20260506175544 | 64 | 212 | 7.0 | 13.0 | 0.02 | 0.02 | 0.02 | 63 | 1007.1 |
| 20260506175043 | 64 | 189 | 7.8 | 13.9 | 0.01 | 0.01 | 0.01 | 61 | 1007.0 |
| 20260506174541 | 65 | 237 | 5.2 | 13.9 | 0.00 | 0.00 | 0.00 | 60 | 1007.0 |
| 20260506174041 | 66 | 208 | 7.8 | 12.2 | 0.00 | 0.00 | 0.00 | 57 | 1007.1 |
| 20260506173540 | 67 | 260 | 7.8 | 12.2 | 0.00 | 0.00 | 0.00 | 55 | 1006.7 |
| 20260506173045 | 68 | 247 | 6.1 | 13.0 | 0.00 | 0.00 | 0.00 | 53 | 1006.8 |
| 20260506172539 | 68 | 264 | 6.1 | 11.3 | 0.00 | 0.00 | 0.00 | 52 | 1006.8 |
| 20260506172038 | 68 | 231 | 7.0 | 11.3 | 0.00 | 0.00 | 0.00 | 51 | 1006.7 |
| 20260506171552 | 68 | 247 | 6.1 | 13.0 | 0.00 | 0.00 | 0.00 | 51 | 1006.6 |
| 20260506171036 | 68 | 256 | 4.3 | 16.5 | 0.00 | 0.00 | 0.00 | 51 | 1006.6 |
| 20260506170536 | 68 | 220 | 7.8 | 16.5 | 0.00 | 0.00 | 0.00 | 50 | 1006.7 |
| 20260506170038 | 68 | 203 | 7.0 | 14.8 | 0.00 | 0.00 | 0.00 | 50 | 1006.6 |
| 20260506165535 | 68 | 235 | 8.7 | 13.0 | 0.00 | 0.00 | 0.00 | 49 | 1006.6 |
| 20260506165033 | 69 | 266 | 6.1 | 13.0 | 0.00 | 0.00 | 0.00 | 50 | 1006.7 |
| 20260506164530 | 69 | 245 | 6.1 | 13.9 | 0.00 | 0.00 | 0.00 | 49 | 1006.7 |
| 20260506164030 | 69 | 193 | 5.2 | 14.8 | 0.00 | 0.00 | 0.00 | 49 | 1006.8 |
| 20260506163529 | 69 | 240 | 6.1 | 10.4 | 0.00 | 0.00 | 0.00 | 49 | 1006.8 |
| 20260506163034 | 69 | 233 | 3.5 | 10.4 | 0.00 | 0.00 | 0.00 | 49 | 1006.9 |
| 20260506162528 | 69 | 215 | 6.1 | 10.4 | 0.00 | 0.00 | 0.00 | 49 | 1007.0 |
| 20260506162025 | 69 | 260 | 6.1 | 17.4 | 0.00 | 0.00 | 0.00 | 49 | 1007.0 |
| 20260506161526 | 69 | 236 | 8.7 | 17.4 | 0.00 | 0.00 | 0.00 | 48 | 1007.1 |
| 20260506161024 | 69 | 228 | 5.2 | 11.3 | 0.00 | 0.00 | 0.00 | 50 | 1007.4 |
| 20260506160523 | 69 | 221 | 6.1 | 10.4 | 0.00 | 0.00 | 0.00 | 50 | 1007.3 |
| 20260506160023 | 69 | 233 | 5.2 | 13.0 | 0.00 | 0.00 | 0.00 | 50 | 1007.4 |
| 20260506155520 | 69 | 187 | 5.2 | 13.0 | 0.00 | 0.00 | 0.00 | 50 | 1007.4 |
| 20260506155019 | 69 | 224 | 6.1 | 11.3 | 0.00 | 0.00 | 0.00 | 50 | 1007.5 |
| 20260506154520 | 69 | 226 | 7.0 | 13.0 | 0.00 | 0.00 | 0.00 | 49 | 1007.7 |
| 20260506154017 | 69 | 219 | 6.1 | 13.0 | 0.00 | 0.00 | 0.00 | 50 | 1007.7 |
| 20260506153516 | 69 | 233 | 6.1 | 12.2 | 0.00 | 0.00 | 0.00 | 50 | 1007.8 |
| 20260506153014 | 69 | 231 | 7.0 | 13.9 | 0.00 | 0.00 | 0.00 | 50 | 1007.9 |
| 20260506152515 | 68 | 141 | 3.5 | 12.2 | 0.00 | 0.00 | 0.00 | 52 | 1007.9 |
| 20260506152013 | 68 | 225 | 6.1 | 12.2 | 0.00 | 0.00 | 0.00 | 51 | 1007.9 |
| 20260506151514 | 68 | 210 | 7.8 | 13.0 | 0.00 | 0.00 | 0.00 | 51 | 1008.0 |
| 20260506151010 | 68 | 208 | 5.2 | 13.0 | 0.00 | 0.00 | 0.00 | 53 | 1008.1 |
| 20260506150511 | 68 | 195 | 6.1 | 11.3 | 0.00 | 0.00 | 0.00 | 53 | 1008.1 |
| 20260506150009 | 68 | 206 | 5.2 | 14.8 | 0.00 | 0.00 | 0.00 | 53 | 1008.3 |
| 20260506145509 | 68 | 163 | 6.1 | 14.8 | 0.00 | 0.00 | 0.00 | 53 | 1008.4 |
| 20260506145008 | 68 | 222 | 4.3 | 15.6 | 0.00 | 0.00 | 0.00 | 53 | 1008.2 |
| 20260506144507 | 68 | 248 | 7.0 | 15.6 | 0.00 | 0.00 | 0.00 | 53 | 1008.0 |
| 20260506144106 | 67 | 156 | 5.2 | 18.2 | 0.00 | 0.00 | 0.00 | 53 | 1008.1 |
| 20260506143506 | 67 | 212 | 8.7 | 18.2 | 0.00 | 0.00 | 0.00 | 53 | 1008.4 |
| 20260506143006 | 67 | 198 | 4.3 | 10.4 | 0.00 | 0.00 | 0.00 | 55 | 1008.5 |
| 20260506142503 | 67 | 236 | 5.2 | 11.3 | 0.00 | 0.00 | 0.00 | 55 | 1008.3 |
| 20260506142004 | 67 | 205 | 6.1 | 11.3 | 0.00 | 0.00 | 0.00 | 55 | 1008.3 |
| 20260506141501 | 67 | 168 | 4.3 | 12.2 | 0.00 | 0.00 | 0.00 | 55 | 1008.2 |
| 20260506141100 | 67 | 204 | 6.1 | 12.2 | 0.00 | 0.00 | 0.00 | 55 | 1008.2 |
| 20260506140600 | 67 | 217 | 5.2 | 10.4 | 0.00 | 0.00 | 0.00 | 56 | 1008.1 |
| 20260506135557 | 66 | 130 | 3.5 | 7.0 | 0.00 | 0.00 | 0.00 | 57 | 1008.1 |
| 20260506135055 | 66 | 206 | 2.6 | 10.4 | 0.00 | 0.00 | 0.00 | 58 | 1008.0 |
| 20260506134554 | 65 | 219 | 7.0 | 10.4 | 0.00 | 0.00 | 0.00 | 57 | 1008.0 |
| 20260506134053 | 65 | 211 | 6.1 | 10.4 | 0.00 | 0.00 | 0.00 | 57 | 1008.2 |
| 20260506133553 | 65 | 230 | 4.3 | 10.4 | 0.00 | 0.00 | 0.00 | 58 | 1008.3 |
| 20260506133052 | 65 | 189 | 5.2 | 10.4 | 0.00 | 0.00 | 0.00 | 58 | 1008.2 |
| 20260506132552 | 65 | 203 | 3.5 | 10.4 | 0.00 | 0.00 | 0.00 | 58 | 1008.4 |
| 20260506132053 | 65 | 223 | 3.5 | 8.7 | 0.00 | 0.00 | 0.00 | 59 | 1008.4 |
| 20260506131605 | 65 | 210 | 4.3 | 10.4 | 0.00 | 0.00 | 0.00 | 59 | 1008.5 |
| 20260506131050 | 64 | 217 | 6.1 | 10.4 | 0.00 | 0.00 | 0.00 | 59 | 1008.6 |
| 20260506130549 | 64 | 249 | 4.3 | 13.0 | 0.00 | 0.00 | 0.00 | 59 | 1008.7 |
| 20260506130051 | 64 | 242 | 5.2 | 14.8 | 0.00 | 0.00 | 0.00 | 59 | 1008.6 |
| 20260506125547 | 64 | 235 | 5.2 | 12.2 | 0.00 | 0.00 | 0.00 | 59 | 1008.6 |
| 20260506125046 | 64 | 238 | 6.1 | 12.2 | 0.00 | 0.00 | 0.00 | 58 | 1008.7 |
| 20260506124544 | 64 | 197 | 6.1 | 10.4 | 0.00 | 0.00 | 0.00 | 58 | 1008.7 |
| 20260506124044 | 65 | 240 | 4.3 | 9.6 | 0.00 | 0.00 | 0.00 | 58 | 1008.5 |
| 20260506123543 | 65 | 203 | 6.1 | 15.6 | 0.00 | 0.00 | 0.00 | 58 | 1008.8 |
| 20260506123042 | 65 | 228 | 6.1 | 11.3 | 0.00 | 0.00 | 0.00 | 57 | 1008.8 |
| 20260506122542 | 65 | 205 | 4.3 | 9.6 | 0.00 | 0.00 | 0.00 | 57 | 1008.6 |
| 20260506122041 | 66 | 224 | 4.3 | 10.4 | 0.00 | 0.00 | 0.00 | 57 | 1008.5 |
| 20260506121539 | 66 | 239 | 6.1 | 12.2 | 0.00 | 0.00 | 0.00 | 57 | 1008.5 |
| 20260506121037 | 65 | 183 | 5.2 | 13.0 | 0.00 | 0.00 | 0.00 | 58 | 1008.5 |
| 20260506120537 | 64 | 150 | 7.0 | 13.9 | 0.00 | 0.00 | 0.00 | 59 | 1008.6 |
| 20260506120036 | 64 | 246 | 7.0 | 18.2 | 0.00 | 0.00 | 0.00 | 58 | 1008.7 |
| 20260506115535 | 64 | 198 | 8.7 | 18.2 | 0.00 | 0.00 | 0.00 | 58 | 1008.7 |
| 20260506115034 | 64 | 266 | 5.2 | 13.9 | 0.00 | 0.00 | 0.00 | 59 | 1008.6 |
| 20260506114540 | 64 | 222 | 7.0 | 15.6 | 0.00 | 0.00 | 0.00 | 59 | 1008.4 |
| 20260506114033 | 64 | 221 | 6.1 | 15.6 | 0.00 | 0.00 | 0.00 | 59 | 1008.5 |
| 20260506113531 | 64 | 238 | 4.3 | 9.6 | 0.00 | 0.00 | 0.00 | 60 | 1008.7 |
| 20260506113031 | 63 | 201 | 5.2 | 9.6 | 0.00 | 0.00 | 0.00 | 61 | 1008.8 |
| 20260506112531 | 63 | 202 | 4.3 | 8.7 | 0.00 | 0.00 | 0.00 | 61 | 1008.9 |
| 20260506112029 | 63 | 212 | 4.3 | 13.9 | 0.00 | 0.00 | 0.00 | 61 | 1009.0 |
| 20260506111528 | 63 | 207 | 6.1 | 13.9 | 0.00 | 0.00 | 0.00 | 61 | 1009.0 |
| 20260506111043 | 62 | 129 | 6.1 | 13.0 | 0.00 | 0.00 | 0.00 | 61 | 1009.0 |
| 20260506110528 | 62 | 218 | 6.1 | 11.3 | 0.00 | 0.00 | 0.00 | 61 | 1009.1 |
| 20260506110032 | 62 | 221 | 2.6 | 11.3 | 0.00 | 0.00 | 0.00 | 61 | 1009.1 |
| 20260506105527 | 62 | 211 | 5.2 | 11.3 | 0.00 | 0.00 | 0.00 | 61 | 1009.0 |
| 20260506105025 | 62 | 205 | 4.3 | 7.8 | 0.00 | 0.00 | 0.00 | 61 | 1008.9 |
| 20260506104523 | 62 | 167 | 3.5 | 11.3 | 0.00 | 0.00 | 0.00 | 61 | 1008.7 |
| 20260506104021 | 62 | 240 | 6.1 | 11.3 | 0.00 | 0.00 | 0.00 | 61 | 1009.0 |
| 20260506103522 | 61 | 204 | 5.2 | 10.4 | 0.00 | 0.00 | 0.00 | 61 | 1009.0 |
| 20260506103022 | 61 | 147 | 4.3 | 10.4 | 0.00 | 0.00 | 0.00 | 62 | 1009.0 |
| 20260506102520 | 61 | 175 | 3.5 | 9.6 | 0.00 | 0.00 | 0.00 | 62 | 1008.9 |
| 20260506102019 | 60 | 212 | 2.6 | 9.6 | 0.00 | 0.00 | 0.00 | 62 | 1008.8 |
| 20260506101519 | 60 | 221 | 2.6 | 11.3 | 0.00 | 0.00 | 0.00 | 62 | 1008.9 |
| 20260506101017 | 60 | 214 | 3.5 | 9.6 | 0.00 | 0.00 | 0.00 | 62 | 1008.9 |
| 20260506100516 | 60 | 231 | 4.3 | 8.7 | 0.00 | 0.00 | 0.00 | 62 | 1008.8 |
| 20260506100022 | 60 | 238 | 4.3 | 7.8 | 0.00 | 0.00 | 0.00 | 62 | 1008.8 |
| 20260506095515 | 60 | 217 | 2.6 | 7.8 | 0.00 | 0.00 | 0.00 | 62 | 1008.9 |
| 20260506095015 | 60 | 225 | 1.7 | 6.1 | 0.00 | 0.00 | 0.00 | 62 | 1008.9 |
| 20260506094512 | 60 | 191 | 3.5 | 6.1 | 0.00 | 0.00 | 0.00 | 62 | 1008.7 |
| 20260506094012 | 60 | 218 | 2.6 | 7.0 | 0.00 | 0.00 | 0.00 | 61 | 1008.8 |
| 20260506093512 | 60 | 185 | 2.6 | 9.6 | 0.00 | 0.00 | 0.00 | 61 | 1008.8 |
| 20260506093011 | 60 | 204 | 3.5 | 9.6 | 0.00 | 0.00 | 0.00 | 62 | 1008.9 |
| 20260506092514 | 60 | 252 | 2.6 | 9.6 | 0.00 | 0.00 | 0.00 | 61 | 1008.7 |
| 20260506092010 | 60 | 196 | 3.5 | 9.6 | 0.00 | 0.00 | 0.00 | 62 | 1008.7 |
| 20260506091509 | 60 | 200 | 3.5 | 7.8 | 0.00 | 0.00 | 0.00 | 62 | 1008.7 |
| 20260506091008 | 60 | 165 | 1.7 | 7.0 | 0.00 | 0.00 | 0.00 | 61 | 1008.9 |
| 20260506090507 | 60 | 177 | 4.3 | 7.0 | 0.00 | 0.00 | 0.00 | 62 | 1008.9 |
| 20260506090006 | 60 | 230 | 1.7 | 6.1 | 0.00 | 0.00 | 0.00 | 61 | 1008.9 |
| 20260506085506 | 60 | 208 | 2.6 | 7.8 | 0.00 | 0.00 | 0.00 | 61 | 1008.9 |
| 20260506085005 | 60 | 230 | 4.3 | 7.8 | 0.00 | 0.00 | 0.00 | 61 | 1008.9 |
| 20260506084504 | 60 | 196 | 0.9 | 7.0 | 0.00 | 0.00 | 0.00 | 61 | 1008.9 |
| 20260506084003 | 60 | 157 | 2.6 | 5.2 | 0.00 | 0.00 | 0.00 | 61 | 1008.9 |
| 20260506083502 | 60 | 221 | 0.9 | 2.6 | 0.00 | 0.00 | 0.00 | 61 | 1008.9 |
| 20260506083101 | 60 | 226 | 0.9 | 5.2 | 0.00 | 0.00 | 0.00 | 60 | 1008.9 |
| 20260506082601 | 60 | 239 | 1.7 | 5.2 | 0.00 | 0.00 | 0.00 | 60 | 1008.9 |
| 20260506082058 | 61 | 211 | 1.7 | 7.0 | 0.00 | 0.00 | 0.00 | 60 | 1008.9 |
| 20260506081659 | 61 | 206 | 3.5 | 7.0 | 0.00 | 0.00 | 0.00 | 60 | 1009.0 |
| 20260506081056 | 61 | 226 | 2.6 | 7.0 | 0.00 | 0.00 | 0.00 | 60 | 1009.0 |
| 20260506080556 | 61 | 209 | 2.6 | 5.2 | 0.00 | 0.00 | 0.00 | 60 | 1009.0 |
| 20260506073046 | 62 | 259 | 2.6 | 8.7 | 0.00 | 0.00 | 0.00 | 56 | 1009.0 |
| 20260506072647 | 62 | 192 | 3.5 | 8.7 | 0.00 | 0.00 | 0.00 | 56 | 1009.0 |
| 20260506072044 | 63 | 242 | 2.6 | 10.4 | 0.00 | 0.00 | 0.00 | 56 | 1008.9 |
| 20260506071542 | 63 | 213 | 3.5 | 10.4 | 0.00 | 0.00 | 0.00 | 55 | 1009.0 |
| 20260506071041 | 63 | 227 | 3.5 | 10.4 | 0.00 | 0.00 | 0.00 | 55 | 1008.8 |
| 20260506070542 | 63 | 236 | 3.5 | 10.4 | 0.00 | 0.00 | 0.00 | 55 | 1008.7 |
| 20260506062032 | 64 | 229 | 4.3 | 9.6 | 0.00 | 0.00 | 0.00 | 52 | 1008.4 |
| 20260506061531 | 64 | 243 | 2.6 | 8.7 | 0.00 | 0.00 | 0.00 | 52 | 1008.4 |
| 20260506061030 | 64 | 245 | 3.5 | 9.6 | 0.00 | 0.00 | 0.00 | 52 | 1008.5 |
| 20260506060529 | 64 | 182 | 5.2 | 11.3 | 0.00 | 0.00 | 0.00 | 52 | 1008.4 |
| 20260506051014 | 65 | 190 | 4.3 | 9.6 | 0.00 | 0.00 | 0.00 | 49 | 1008.7 |
| 20260506050512 | 65 | 237 | 4.3 | 11.3 | 0.00 | 0.00 | 0.00 | 49 | 1008.7 |
| 20260506045010 | 64 | 246 | 4.3 | 8.7 | 0.00 | 0.00 | 0.00 | 49 | 1008.9 |
| 20260506044511 | 64 | 205 | 4.3 | 8.7 | 0.00 | 0.00 | 0.00 | 49 | 1008.9 |
| 20260506044008 | 64 | 261 | 4.3 | 8.7 | 0.00 | 0.00 | 0.00 | 49 | 1009.0 |
| 20260506043507 | 64 | 203 | 4.3 | 9.6 | 0.00 | 0.00 | 0.00 | 49 | 1008.9 |
| 20260506043005 | 65 | 243 | 4.3 | 11.3 | 0.00 | 0.00 | 0.00 | 48 | 1009.1 |
| 20260506042506 | 65 | 253 | 6.1 | 13.9 | 0.00 | 0.00 | 0.00 | 48 | 1009.2 |
| 20260506042004 | 65 | 214 | 7.8 | 13.9 | 0.00 | 0.00 | 0.00 | 48 | 1009.1 |
| 20260506041502 | 65 | 249 | 5.2 | 15.6 | 0.00 | 0.00 | 0.00 | 48 | 1009.0 |
| 20260506041001 | 65 | 200 | 5.2 | 13.0 | 0.00 | 0.00 | 0.00 | 48 | 1008.9 |